Home   Weather   Playa del Carmen   Past weeks

Flag for Mexico Past Weather in Playa del Carmen, Quintana Roo, Mexico — Yesterday and Last 2 Weeks

Now
84 °F

Broken clouds.


Feels Like: 96 °F
Forecast: 81 / 90 °F
Wind: 7 mph from Southeast

Location: Cozumel Civ / Mil

Current Time: Jul 24, 2017 at 7:57:22 pm

Latest Report: Jul 24, 2017 at 6:44 pm


Visibility: 8 mi

Pressure: 29.99 "Hg

Humidity: 84%

Dew Point: 79 °F

Location of Playa del CarmenLocation

Past Weather in Playa del Carmen — Graph

°F

Playa del Carmen Temperature Yesterday

Maximum temperature yesterday: 90 °F (at 10:49 am)
Minimum temperature yesterday: 77 °F (at 5:42 am)
Average temperature yesterday: 84 °F

High & Low Weather Summary for the Past Weeks

 TemperatureHumidityPressure
High91 °F (Jul 17, 2:48 pm)100% (Jul 11, 1:45 am)30.10 "Hg (Jul 11, 1:45 am)
Low73 °F (Jul 22, 5:43 am)56% (Jul 21, 2:54 pm)29.91 "Hg (Jul 16, 4:44 pm)
Average83 °F82%30.00 "Hg
* Reported Jul 9 5:43 pm — Jul 24 5:45 pm, Playa del Carmen. Weather by CustomWeather, © 2017

Note: Actual official high and low records may vary slightly from our data, if they occured in-between our weather recording intervals... More about our weather records

Advertising

Playa del Carmen Weather History for the Previous 24 Hours

Scroll right to see more
 ConditionsComfort  
Time TempWeatherWind HumidityBarometerVisibility
5:45 pm
Mon, Jul 24
86 °FPartly sunny.9 mph79%29.95 "Hg8 mi
4:46 pm88 °FPartly sunny.12 mph75%29.94 "Hg8 mi
3:54 pm88 °FPartly sunny.12 mph70%29.97 "Hg8 mi
2:44 pm90 °FPartly sunny.10 mph67%29.97 "Hg8 mi
1:50 pm88 °FPartly sunny.9 mph75%29.99 "Hg8 mi
1:01 pm88 °FScattered clouds.8 mph75%30.03 "Hg8 mi
11:47 am88 °FBroken clouds.10 mph75%30.02 "Hg8 mi
10:42 am86 °FBroken clouds.6 mph84%30.03 "Hg8 mi
9:44 am84 °FBroken clouds.3 mph89%30.02 "Hg8 mi
8:53 am84 °FBroken clouds.3 mph84%30.00 "Hg8 mi
7:43 am81 °FBroken clouds.No wind94%29.99 "Hg7 mi
6:44 am79 °FPartly cloudy.No wind94%29.98 "Hg6 mi
5:40 am79 °FMostly cloudy.6 mph94%29.93 "Hg7 mi
4:44 am77 °FMostly cloudy.6 mph94%29.93 "Hg7 mi
3:46 am77 °FThunderstorms. Passing clouds.6 mph94%29.96 "Hg7 mi
2:42 am75 °FThunderstorms. Passing clouds.6 mph100%29.95 "Hg7 mi
1:42 am81 °FThunderstorms. Passing clouds.7 mph89%29.96 "Hg7 mi
1:15 am79 °FPassing clouds.6 mph94%29.97 "Hg7 mi
11:44 pm
Sun, Jul 23
81 °FPassing clouds.3 mph89%29.98 "Hg7 mi
10:44 pm82 °FPassing clouds.6 mph89%29.97 "Hg7 mi
9:42 pm84 °FPartly cloudy.6 mph84%29.97 "Hg7 mi
8:43 pm84 °FPartly cloudy.8 mph84%29.96 "Hg7 mi
8:09 pm84 °FBroken clouds.6 mph84%29.95 "Hg7 mi
Weather by CustomWeather, © 2017

See weather overviewHow to use our weather pages